Temperature
22 21 22 21 21 21 20 20 20 19 19 19 19 19 19 19 19 19 19 19 19 19 19 18 18 18 18 18 18 18 18 18 18 18 18 18 18 18 17 17 17 17 17
22 21 22 22 21 21 20 20 20 19 19 19 19 19 19 19 19 19 19 19 19 19 19 18 18 18 18 18 18 18 18 18 18 18 18 18 18 18 18 17 17 17 17
21 21 22 22 21 21 21 20 20 20 19 19 19 19 19 19 19 19 19 19 19 19 19 18 18 18 18 18 18 18 18 18 18 18 17 17 17 18 18 18 18 18 17
22 21 22 22 21 21 21 21 20 20 20 19 19 19 19 19 19 19 19 19 19 19 19 18 18 18 18 18 19 19 18 18 18 18 17 17 17 18 18 18 18 18 17
21 21 22 21 21 21 21 20 20 20 20 20 20 20 19 19 19 19 19 19 19 19 18 18 18 18 19 19 19 19 19 19 18 17 17 17 17 18 18 18 18 18 18
21 20 21 21 21 20 20 20 20 20 20 20 20 20 20 20 20 20 19 19 19 18 18 18 18 19 19 19 19 19 19 19 18 18 18 17 17 18 18 18 18 18 18
22 21 20 21 20 20 20 20 20 20 20 20 20 20 20 20 20 19 19 19 19 18 18 18 19 19 19 19 19 19 19 19 17 18 17 17 17 18 18 18 18 18 18
22 21 19 20 20 20 20 20 20 20 20 20 20 20 20 20 20 19 19 19 19 19 19 19 19 19 19 19 19 19 19 19 18 18 17 17 17 18 18 18 18 18 18
22 21 19 19 19 19 19 19 20 20 20 20 20 20 20 20 20 19 19 19 19 19 19 19 19 19 19 19 19 19 19 19 17 18 18 18 18 18 18 18 18 18 18
20 20 19 19 18 18 19 19 20 20 20 20 20 20 20 20 20 20 19 19 19 19 19 19 19 19 19 19 19 19 19 18 18 18 18 18 18 18 18 18 18 18 18
20 19 19 19 19 19 18 18 19 19 19 19 19 20 20 19 19 19 19 19 19 19 19 19 19 19 19 18 18 18 18 17 18 18 18 18 18 18 18 18 18 17 18
19 19 20 20 20 19 19 19 19 19 19 19 18 18 19 18 18 18 18 19 19 19 19 19 18 18 18 17 18 18 17 17 18 18 18 18 18 18 18 18 18 17 17
20 20 20 20 20 20 20 20 19 19 19 19 19 19 19 18 18 18 18 18 18 18 18 18 18 17 17 17 18 18 17 18 18 18 18 18 18 18 18 18 18 18 17
20 19 19 19 19 20 19 19 19 19 18 18 18 18 18 18 18 18 18 18 18 18 17 18 18 17 17 17 17 17 18 18 18 18 18 18 18 18 18 18 18 18 17
19 18 18 18 18 18 19 18 18 18 17 17 17 18 18 18 18 18 18 18 17 17 17 17 17 17 17 17 17 17 18 18 18 18 18 18 18 18 18 18 18 18 18
17 17 17 17 18 18 18 18 18 17 17 17 17 17 17 17 17 17 17 17 17 17 17 17 17 17 17 17 17 17 17 17 17 17 18 18 18 18 18 18 18 18 18
16 17 17 17 17 17 17 17 17 17 16 16 16 16 16 17 17 17 17 17 17 17 17 17 17 17 17 17 17 17 17 17 17 17 17 17 17 18 18 18 18 18 18
16 16 16 16 16 17 17 17 16 16 16 16 16 16 16 16 16 16 17 17 17 17 17 17 17 17 17 17 17 17 17 17 17 17 17 17 17 17 17 18 18 18 18
16 16 16 16 16 16 16 16 16 16 16 15 15 15 15 15 15 16 16 16 17 17 17 17 17 17 17 17 17 17 17 17 17 17 17 17 17 17 17 17 17 18 18
16 16 16 16 16 16 16 16 16 15 15 15 15 15 15 15 15 15 16 16 16 16 16 16 16 16 16 16 17 17 17 17 17 17 16 17 17 16 17 17 16 17 17
16 16 16 17 16 16 16 15 15 15 15 15 15 15 15 15 15 15 15 16 16 16 16 16 16 16 16 16 16 17 17 17 17 16 16 17 17 17 16 16 16 16 17
16 16 16 16 16 16 16 15 15 15 15 15 15 15 15 15 15 15 15 15 15 15 16 16 16 16 16 16 16 17 18 18 17 17 16 16 16 17 16 16 16 16 16
16 16 16 15 15 15 15 15 15 15 15 15 15 15 15 15 15 15 16 15 15 15 15 16 15 15 16 16 16 17 18 20 20 18 16 16 16 16 16 16 16 16 16
16 15 15 15 15 15 14 14 14 14 14 14 14 14 14 15 15 15 15 15 15 15 15 15 15 15 15 16 16 16 16 17 18 19 17 17 16 15 16 16 16 16 16
15 15 14 14 14 14 14 14 13 14 14 14 14 14 14 14 14 15 15 15 15 15 15 15 15 15 15 16 16 16 16 15 16 17 19 18 16 16 16 15 16 16 16
15 15 14 13 13 13 13 13 13 13 13 13 13 13 13 14 14 14 14 14 15 15 15 15 15 15 15 15 16 16 16 16 16 17 17 17 17 17 16 16 16 16 16
Wind_Speed
14 20 24 21 19 17 16 15 14 14 14 15 16 16 15 14 14 14 13 12 11 10 9 9 9 9 9 8 9 9 10 11 11 10 10 9 10 10 10 9 7 12 13
17 21 24 21 19 17 16 15 14 13 13 14 15 15 14 13 13 13 12 12 11 10 9 8 8 9 9 8 8 9 10 10 9 9 10 10 10 9 9 6 3 13 12
19 21 23 20 19 17 16 15 14 13 13 13 13 13 13 12 11 11 11 11 10 9 8 8 8 8 8 7 7 8 8 8 8 9 9 9 11 9 8 7 9 12 11
18 20 20 20 18 17 16 15 14 13 12 11 12 12 11 11 10 10 10 10 10 9 8 8 8 8 8 7 7 7 7 7 7 9 9 7 9 11 8 7 9 10 11
17 17 19 20 17 16 15 14 13 13 12 11 11 11 11 10 10 10 10 10 10 9 9 9 8 8 8 7 7 6 6 5 6 9 5 5 6 12 9 8 8 9 9
16 16 19 18 16 15 14 13 13 12 12 11 11 11 11 11 11 11 11 10 10 9 9 10 9 8 8 8 7 7 6 6 8 8 6 5 7 11 10 9 9 9 9
16 14 19 17 16 15 14 13 12 11 11 11 11 11 10 10 11 11 12 12 11 9 8 8 8 8 8 8 9 9 8 8 10 6 6 6 5 9 8 11 11 11 10
14 13 17 16 14 13 12 12 11 11 11 11 11 11 10 10 9 9 10 10 10 9 9 8 9 9 9 9 10 10 10 11 13 10 9 8 8 7 8 11 12 12 12
12 11 12 15 14 13 11 11 11 11 11 11 12 12 12 11 10 10 10 10 10 10 10 10 10 11 11 11 12 12 12 13 14 11 11 10 12 11 11 13 14 14 14
10 10 10 10 11 12 13 13 12 12 13 13 13 14 13 13 13 13 13 13 13 12 12 12 12 13 13 14 14 14 14 14 16 14 11 10 14 12 13 15 17 18 17
11 10 9 9 9 9 9 11 13 13 15 15 15 16 15 14 16 15 18 16 15 15 15 15 15 15 15 16 17 16 16 15 16 14 11 11 15 13 14 15 17 21 21
13 12 10 10 9 9 8 8 10 12 14 16 15 15 16 14 14 14 12 15 16 17 17 17 17 16 17 15 18 19 15 17 16 12 11 13 14 14 15 15 15 20 23
13 11 11 9 8 7 6 6 7 9 10 14 16 16 15 14 13 13 11 13 16 18 17 17 18 17 16 14 12 14 15 14 12 12 12 17 17 16 17 17 17 18 22
10 9 7 5 3 4 4 5 6 7 8 9 12 16 14 10 11 10 9 11 11 12 13 13 11 14 15 15 15 14 13 12 12 12 10 16 16 16 17 17 18 19 20
5 4 2 1 3 4 4 6 6 7 9 11 11 13 15 11 12 11 9 10 12 12 11 11 12 13 13 14 14 15 15 15 15 14 11 13 16 17 18 18 18 19 20
5 5 5 6 7 7 6 6 7 9 9 12 12 14 15 13 11 11 12 11 11 12 12 11 12 12 12 12 14 15 16 16 16 16 15 13 18 19 18 17 17 17 18
8 7 6 6 7 8 8 8 8 9 11 11 11 14 14 13 12 11 11 10 10 11 12 11 12 10 12 13 15 16 14 14 14 15 16 14 14 19 20 18 17 17 18
6 5 6 6 7 7 7 8 8 9 10 10 10 11 12 12 11 9 9 9 9 9 8 9 10 10 11 11 11 12 12 12 14 13 14 14 14 13 17 20 18 18 18
5 5 5 5 6 7 8 8 9 9 9 8 8 8 8 7 7 6 6 6 7 7 8 9 9 9 10 10 10 11 11 11 11 12 12 13 13 12 12 14 18 17 18
7 6 6 6 8 8 8 7 7 8 7 6 6 6 6 4 4 4 4 5 6 6 7 8 8 8 8 8 10 9 8 9 9 10 11 11 11 12 13 12 12 15 20
8 8 8 9 9 9 8 9 9 9 8 7 5 5 5 5 5 3 4 4 5 6 8 8 8 8 8 7 7 8 9 11 11 10 10 11 11 12 12 12 12 12 12
9 9 9 10 10 10 9 9 8 10 8 7 6 6 6 6 6 5 4 5 6 7 9 8 7 8 8 7 7 8 8 9 9 11 10 10 11 10 11 12 11 10 11
9 10 10 10 10 10 11 10 10 9 8 7 8 7 8 8 7 6 6 7 8 9 9 9 9 10 9 8 9 8 7 6 4 7 8 8 8 8 9 8 10 10 11
10 10 10 11 11 11 11 11 12 11 11 10 8 8 8 7 7 6 6 7 8 9 9 10 11 9 10 9 8 9 9 5 5 4 7 8 8 8 8 7 8 9 10
12 12 11 11 12 12 12 12 12 13 11 10 10 9 9 7 6 5 5 6 7 8 9 11 9 11 10 10 9 8 9 7 8 7 5 5 7 8 8 8 8 8 9
12 12 11 11 12 13 14 14 13 14 14 14 12 11 9 7 6 5 4 4 5 6 7 9 10 12 11 11 9 8 8 8 8 8 8 7 6 6 6 6 6 6 6
Wind_Direction
157 151 151 159 161 159 153 148 144 144 148 154 156 156 156 157 157 156 154 153 152 150 147 140 134 135 137 130 120 114 115 119 123 125 124 121 117 115 117 128 150 116 112
152 148 151 158 161 160 156 151 147 146 146 150 154 155 156 157 158 158 158 157 157 155 150 146 139 134 132 129 124 120 122 125 130 134 136 132 124 121 123 126 64 112 126
149 147 154 157 160 161 158 154 151 150 149 150 153 157 158 160 161 161 161 162 162 161 158 155 149 141 135 131 127 126 128 133 141 150 173 155 133 131 130 123 108 125 134
150 149 155 153 158 160 159 157 155 153 153 156 159 162 165 167 168 169 168 168 168 168 165 160 156 149 142 138 135 136 140 145 155 178 190 145 144 137 146 142 135 138 140
146 148 145 153 157 159 160 159 158 158 159 162 167 170 172 176 179 180 179 177 177 178 170 163 159 155 151 148 148 150 157 163 171 216 162 148 137 140 160 163 155 149 146
147 153 145 155 156 158 160 161 162 163 165 169 173 176 179 183 186 189 187 185 188 184 171 165 162 159 159 161 164 170 178 184 204 201 162 178 151 150 174 179 177 169 163
153 152 147 156 156 158 161 164 166 169 174 178 181 184 187 189 193 195 193 193 196 188 176 172 174 177 180 182 184 187 193 201 226 206 187 196 153 140 184 189 191 186 180
153 152 142 154 158 160 164 168 172 177 183 188 191 194 197 200 203 204 201 199 199 196 194 194 195 196 198 199 199 199 202 216 220 218 213 209 156 168 202 202 200 199 193
151 149 148 164 168 168 170 176 181 186 191 195 199 202 204 207 211 215 215 214 213 210 209 209 209 209 207 207 208 208 210 223 243 222 219 217 166 191 214 216 209 206 204
144 151 153 170 174 181 183 183 191 198 200 202 206 208 209 212 215 218 222 218 223 223 220 218 217 216 215 214 214 213 213 218 236 233 221 204 165 195 218 224 217 210 208
148 157 161 165 173 186 197 186 198 207 211 211 213 212 215 221 220 214 221 216 221 228 229 228 226 225 225 222 222 220 218 229 229 236 224 170 168 200 221 228 222 213 209
156 162 168 171 175 188 199 198 214 221 218 221 226 217 218 225 232 232 211 210 224 233 236 235 236 234 233 233 219 214 226 229 240 232 220 166 184 209 223 229 226 218 213
160 167 174 177 184 199 206 217 225 234 233 230 230 228 228 228 229 233 229 217 225 231 236 231 229 233 231 233 235 219 225 232 231 234 219 177 197 215 224 227 228 224 220
161 167 172 176 196 234 262 253 245 248 252 253 244 238 234 232 231 229 229 233 230 229 231 239 236 235 236 236 234 237 234 234 238 236 224 180 198 216 226 228 228 229 226
136 138 112 357 328 319 310 300 289 280 272 267 265 253 245 241 237 231 229 232 238 241 235 234 241 241 239 238 238 235 236 236 239 239 232 196 204 216 226 229 228 230 231
58 44 17 355 342 333 324 314 302 290 282 276 270 261 252 248 245 239 234 232 236 241 245 245 246 247 246 246 244 241 238 236 235 236 239 221 208 214 220 226 225 226 229
34 21 359 344 344 338 326 315 302 294 290 285 280 270 257 250 247 242 240 238 239 240 242 245 250 250 248 245 245 243 239 238 235 232 235 236 225 210 212 217 222 224 226
28 14 357 346 341 332 321 311 305 299 294 289 287 277 265 255 249 246 241 243 244 245 240 240 244 244 245 247 247 244 241 239 238 236 236 234 237 232 210 209 216 222 226
32 23 15 0 349 337 324 312 305 303 298 292 293 286 279 272 266 254 246 249 249 245 241 244 237 240 243 242 243 239 239 237 237 236 236 239 236 238 240 201 204 218 225
43 36 25 16 6 346 337 324 315 308 305 302 303 296 289 295 307 287 259 251 249 245 239 237 242 238 246 240 245 242 233 233 231 233 235 237 236 236 238 238 221 218 218
45 36 25 17 10 357 352 342 334 325 316 311 313 326 323 321 325 311 275 266 246 245 245 238 231 230 235 235 243 245 240 236 237 238 239 246 242 239 241 240 242 243 220
34 23 15 12 7 355 354 336 327 321 315 317 324 328 328 321 307 294 273 261 249 244 243 241 230 242 237 225 241 248 245 231 222 232 233 232 241 237 232 230 233 234 247
12 4 359 353 346 346 339 332 335 328 321 330 334 333 335 329 317 293 269 258 253 247 240 234 228 231 240 229 229 242 246 245 218 195 216 224 221 225 228 225 228 232 234
350 345 343 338 334 330 323 327 330 326 327 331 328 331 329 328 328 317 285 264 255 249 246 237 229 233 238 238 221 233 256 293 271 218 193 203 208 218 233 233 235 230 233
334 334 333 332 328 324 318 311 306 309 316 317 320 318 316 315 315 318 310 286 265 256 249 245 237 231 232 240 235 220 224 228 240 260 242 201 204 214 221 232 243 246 241
328 329 330 333 329 325 318 311 302 300 301 303 304 306 304 304 297 293 295 297 285 273 261 252 245 233 236 238 244 237 225 225 223 228 240 237 233 223 218 235 239 240 243
Height
1509 1509 1511 1515 1518 1521 1524 1526 1529 1532 1534 1536 1538 1540 1541 1542 1544 1545 1546 1546 1547 1548 1549 1550 1552 1553 1553 1554 1555 1555 1556 1556 1556 1557 1557 1558 1559 1559 1560 1561 1562 1564 1563
1508 1509 1512 1516 1519 1522 1525 1527 1530 1532 1535 1537 1539 1540 1542 1543 1544 1545 1546 1547 1548 1549 1550 1551 1552 1553 1554 1555 1555 1556 1556 1557 1557 1558 1559 1559 1560 1561 1562 1563 1564 1565 1565
1509 1510 1513 1517 1520 1523 1526 1528 1531 1533 1535 1537 1539 1541 1542 1543 1544 1545 1546 1547 1548 1549 1550 1551 1553 1554 1554 1555 1556 1556 1557 1558 1558 1559 1560 1563 1562 1562 1563 1564 1565 1566 1566
1511 1513 1515 1518 1521 1524 1527 1529 1532 1534 1536 1538 1539 1541 1542 1543 1544 1545 1546 1547 1548 1549 1551 1552 1553 1554 1554 1555 1556 1557 1557 1558 1559 1560 1563 1565 1565 1564 1564 1565 1566 1567 1568
1514 1516 1517 1520 1523 1525 1528 1530 1533 1535 1536 1538 1539 1540 1541 1543 1544 1545 1546 1547 1548 1549 1550 1552 1553 1553 1554 1555 1556 1557 1558 1559 1560 1561 1565 1565 1565 1564 1565 1566 1567 1568 1569
1516 1519 1518 1521 1524 1527 1529 1531 1533 1535 1536 1538 1539 1540 1541 1542 1543 1544 1546 1547 1548 1549 1550 1551 1552 1553 1554 1555 1556 1557 1558 1559 1560 1565 1565 1565 1566 1565 1565 1566 1567 1569 1570
1518 1521 1520 1522 1525 1527 1530 1532 1533 1535 1536 1537 1538 1539 1541 1542 1543 1544 1545 1546 1547 1549 1550 1551 1552 1553 1554 1555 1556 1557 1558 1559 1560 1564 1565 1566 1566 1565 1566 1566 1568 1569 1570
1520 1523 1522 1524 1526 1528 1530 1532 1533 1535 1536 1537 1538 1539 1540 1541 1542 1543 1544 1545 1546 1548 1549 1550 1550 1551 1553 1553 1554 1555 1557 1558 1560 1563 1564 1565 1564 1565 1566 1567 1568 1569 1570
1522 1524 1524 1525 1526 1528 1530 1532 1533 1534 1535 1536 1537 1538 1539 1540 1541 1542 1543 1544 1545 1546 1547 1548 1549 1549 1550 1551 1552 1553 1554 1556 1558 1561 1562 1563 1562 1564 1565 1566 1568 1569 1570
1520 1523 1524 1527 1528 1529 1530 1531 1533 1533 1534 1535 1535 1536 1537 1538 1539 1540 1541 1542 1543 1543 1544 1545 1546 1547 1548 1549 1550 1551 1552 1553 1554 1559 1559 1560 1559 1561 1563 1565 1566 1568 1569
1518 1521 1524 1526 1527 1529 1530 1531 1531 1532 1532 1532 1533 1533 1534 1536 1537 1537 1538 1539 1540 1541 1542 1543 1544 1544 1545 1546 1547 1548 1549 1550 1553 1555 1556 1556 1556 1558 1560 1562 1564 1566 1567
1517 1519 1521 1524 1525 1527 1528 1529 1529 1530 1530 1530 1531 1531 1531 1533 1534 1536 1536 1535 1537 1538 1538 1539 1540 1541 1542 1544 1544 1544 1546 1547 1550 1551 1552 1551 1552 1554 1556 1558 1560 1562 1564
1517 1519 1521 1523 1524 1526 1526 1526 1526 1527 1527 1527 1526 1526 1527 1528 1529 1530 1532 1532 1532 1534 1535 1536 1537 1537 1539 1540 1542 1542 1542 1544 1545 1547 1548 1546 1548 1550 1552 1554 1556 1558 1561
1518 1520 1522 1522 1522 1523 1523 1523 1522 1523 1523 1524 1523 1522 1522 1522 1523 1524 1525 1528 1529 1530 1530 1532 1532 1534 1534 1535 1536 1537 1538 1538 1540 1542 1543 1542 1544 1546 1547 1549 1551 1554 1556
1519 1520 1520 1520 1520 1520 1519 1519 1520 1519 1519 1519 1518 1517 1516 1517 1517 1518 1518 1520 1523 1525 1525 1526 1527 1528 1529 1530 1531 1531 1532 1533 1535 1536 1537 1537 1539 1541 1543 1545 1547 1549 1551
1519 1519 1519 1519 1519 1518 1517 1516 1515 1515 1514 1513 1512 1511 1510 1510 1511 1511 1512 1513 1515 1518 1520 1520 1521 1522 1523 1524 1525 1526 1526 1528 1529 1529 1532 1533 1533 1536 1537 1539 1542 1544 1546
1520 1520 1520 1519 1518 1516 1515 1514 1512 1511 1509 1507 1505 1503 1502 1502 1503 1504 1505 1507 1508 1510 1512 1514 1515 1516 1517 1518 1519 1520 1521 1522 1523 1524 1526 1528 1530 1530 1532 1534 1536 1539 1541
1521 1520 1520 1519 1517 1515 1513 1511 1509 1507 1504 1501 1498 1496 1495 1494 1495 1496 1498 1500 1502 1504 1506 1508 1509 1511 1511 1512 1513 1514 1515 1516 1517 1519 1521 1523 1525 1527 1527 1528 1531 1533 1535
1522 1521 1519 1518 1516 1514 1512 1509 1507 1504 1500 1496 1493 1490 1488 1487 1488 1489 1491 1494 1496 1499 1501 1503 1504 1505 1506 1507 1508 1508 1510 1511 1512 1514 1516 1518 1520 1521 1523 1523 1524 1527 1529
1523 1522 1520 1518 1516 1513 1511 1508 1506 1503 1499 1494 1490 1486 1484 1484 1484 1484 1486 1489 1491 1494 1496 1498 1499 1500 1502 1503 1504 1505 1506 1507 1508 1510 1511 1513 1515 1516 1518 1519 1520 1521 1522
1524 1522 1520 1518 1515 1513 1510 1508 1505 1502 1498 1494 1490 1486 1484 1483 1482 1481 1483 1485 1488 1490 1492 1495 1496 1497 1499 1500 1501 1502 1503 1504 1505 1505 1506 1508 1510 1512 1513 1514 1516 1518 1519
1525 1523 1520 1518 1515 1513 1510 1507 1504 1500 1497 1494 1491 1488 1486 1483 1481 1481 1481 1483 1485 1487 1489 1491 1491 1494 1496 1497 1498 1499 1500 1501 1499 1500 1501 1502 1504 1506 1508 1509 1511 1512 1514
1525 1522 1520 1517 1514 1511 1508 1507 1504 1500 1497 1494 1490 1487 1485 1483 1481 1480 1480 1481 1483 1484 1486 1487 1489 1490 1493 1494 1495 1497 1497 1495 1496 1497 1497 1498 1499 1502 1504 1505 1506 1508 1509
1524 1521 1518 1515 1512 1509 1507 1505 1502 1499 1496 1492 1489 1486 1483 1481 1479 1478 1478 1479 1480 1482 1483 1485 1486 1487 1489 1491 1491 1492 1494 1494 1495 1494 1495 1495 1496 1498 1500 1502 1503 1504 1505
1522 1519 1516 1513 1510 1507 1504 1502 1499 1497 1494 1491 1488 1484 1481 1479 1477 1476 1475 1475 1476 1477 1479 1481 1482 1484 1486 1487 1488 1489 1490 1491 1492 1493 1492 1494 1495 1495 1497 1497 1499 1500 1501
1519 1516 1513 1510 1507 1504 1501 1498 1496 1493 1490 1488 1485 1483 1480 1478 1476 1474 1472 1472 1472 1473 1474 1475 1477 1479 1480 1482 1483 1485 1487 1488 1489 1490 1490 1491 1492 1493 1493 1494 1494 1495 1496